Вернуться в каталог

FENGYUN 1C DEB

АктивенSSO
NORAD 32143·DEBRIS·🇨🇳 China

Запущен May 10, 1999 с Taiyuan Satellite Launch Center

Loading…

Ближайшие Пролёты (ближайшие 24 часа)

TLE

СвежийSource: Space-Track

Эпоха: Sep 14, 2026, 04:00 UTC

1 32143U 99025CSM 26257.16735713  .00000242  00000-0  13128-3 0  9999
2 32143  98.6280 231.0274 0104001  36.0818 324.7319 14.18175000998371

Отслеживайте FENGYUN 1C DEB в реальном времени с AllMySat

Download on the App Store